YO8RXT-3 Weather Reports


time (UTC)temp
C
wind
direction
speed
KPH
gust
KPH
rain 1hr
cm
rain 24hr
cm
rain mn
cm
humidity
%
barometer
mb
20260901103502 26 260 11.3 0.0 0.00 0.00 0.00 42 1016.0
20260901100502 27 220 11.3 0.0 0.00 0.00 0.00 39 1016.0
20260901093502 26 210 8.0 0.0 0.00 0.00 0.00 39 1016.0
20260901090502 26 190 8.0 0.0 0.00 0.00 0.00 39 1016.0
20260901083502 26 180 12.9 0.0 0.00 0.00 0.00 37 1016.0
20260901080502 23 120 14.5 0.0 0.00 0.00 0.00 44 1016.0
20260901073502 23 130 9.7 0.0 0.00 0.00 0.00 41 1016.0
20260901070502 22 120 9.7 0.0 0.00 0.00 0.00 44 1016.0
20260901063502 22 130 11.3 0.0 0.00 0.00 0.00 47 1015.0
20260901060502 21 120 16.1 0.0 0.00 0.00 0.00 50 1015.0
20260901053502 20 110 14.5 0.0 0.00 0.00 0.00 53 1015.0
20260901050502 20 110 16.1 0.0 0.00 0.00 0.00 49 1015.0
20260901043502 18 100 12.9 0.0 0.00 0.00 0.00 52 1015.0
20260901040502 18 100 16.1 0.0 0.00 0.00 0.00 52 1015.0
20260901033502 17 110 16.1 0.0 0.00 0.00 0.00 56 1015.0
20260901030502 17 100 12.9 0.0 0.00 0.00 0.00 56 1015.0
20260901023502 18 100 14.5 0.0 0.00 0.00 0.00 52 1015.0
20260901020503 18 90 12.9 0.0 0.00 0.00 0.00 49 1015.0
20260901013502 18 100 14.5 0.0 0.00 0.00 0.00 49 1015.0
20260901010502 20 90 16.1 0.0 0.00 0.00 0.00 46 1015.0
20260901003503 21 110 14.5 0.0 0.00 0.00 0.00 43 1016.0
20260901000503 21 110 12.9 0.0 0.00 0.00 0.00 43 1016.0
20260831233502 22 130 12.9 0.0 0.00 0.00 0.00 41 1016.0
20260831230502 23 170 12.9 0.0 0.00 0.00 0.00 36 1016.0
20260831223502 23 150 12.9 0.0 0.00 0.00 0.00 39 1016.0
20260831220504 23 170 16.1 0.0 0.00 0.00 0.00 39 1017.0
20260831213502 23 150 12.9 0.0 0.00 0.00 0.00 39 1017.0
20260831210502 23 150 12.9 0.0 0.00 0.00 0.00 41 1017.0
20260831203502 23 150 9.7 0.0 0.00 0.00 0.00 41 1016.0
20260831200502 23 150 14.5 0.0 0.00 0.00 0.00 39 1016.0
20260831193503 26 120 11.3 0.0 0.00 0.00 0.00 34 1016.0
20260831190503 25 110 8.0 0.0 0.00 0.00 0.00 36 1016.0
20260831183503 26 110 9.7 0.0 0.00 0.00 0.00 34 1016.0
20260831180502 26 140 8.0 0.0 0.00 0.00 0.00 34 1016.0
20260831173502 27 150 14.5 0.0 0.00 0.00 0.00 32 1015.0
20260831170503 27 140 12.9 0.0 0.00 0.00 0.00 34 1015.0
20260831163502 27 150 14.5 0.0 0.00 0.00 0.00 32 1015.0
20260831160502 28 150 14.5 0.0 0.00 0.00 0.00 31 1015.0
20260831153502 30 160 14.5 0.0 0.00 0.00 0.00 29 1015.0
20260831150502 31 160 16.1 0.0 0.00 0.00 0.00 27 1015.0
20260831143502 31 170 14.5 0.0 0.00 0.00 0.00 27 1015.0
20260831140501 31 150 16.1 0.0 0.00 0.00 0.00 27 1015.0
20260831133502 32 140 16.1 0.0 0.00 0.00 0.00 27 1016.0
20260831130502 31 160 12.9 0.0 0.00 0.00 0.00 29 1016.0
20260831123502 32 190 9.7 0.0 0.00 0.00 0.00 27 1016.0
20260831120502 31 150 16.1 0.0 0.00 0.00 0.00 29 1016.0
20260831113502 31 180 12.9 0.0 0.00 0.00 0.00 29 1016.0
20260831110503 31 150 16.1 0.0 0.00 0.00 0.00 29 1017.0